Weather History for Trinity Center, CA

Change the Weather History Date:

Sunday, November 4, 2012

  Actual Average (KMHS) Record (KMHS)
Temperature  
Mean Temperature 54 °F 44 °F  
Max Temperature 66 °F 56 °F 86 °F (1919)
Min Temperature 41 °F 32 °F 12 °F (1935)
Degree Days  
Heating Degree Days 12 21  
Month to date heating degree days 81  
Since 1 July heating degree days 745  
Cooling Degree Days 0 0  
Month to date cooling degree days 0  
Year to date cooling degree days 288  
Growing Degree Days 4 (Base 50)    
Moisture  
Dew Point 46 °F    
Average Humidity 86    
Maximum Humidity 100    
Minimum Humidity 59    
Precipitation  
Precipitation 0.00 in 0.15 in 2.22 in (1970)
Month to date precipitation 0.59  
Year to date precipitation 30.87  
Sea Level Pressure  
Sea Level Pressure 30.37 in    
Wind  
Wind Speed 2 mph ()    
Max Wind Speed 6 mph    
Max Gust Speed -    
Visibility 9.1 miles    
Events      
T = Trace of Precipitation, MM = Missing Value Source: Averaged Metar Reports

Daily Weather History Graph

Daily Weather History Graph

Search for Another Location

Airport:

Trip Planner

Search our weather history database for the weather conditions in past years. The results will help you decide how hot, cold, wet, or windy it might be!

Date:

Astronomy

Nov. 04, 2012 Rise Set
Actual Time 6:45 AM PST 5:02 PM PST
Civil Twilight 6:17 AM PST 5:31 PM PST
Nautical Twilight 5:44 AM PST 6:03 PM PST
Astronomical Twilight 5:12 AM PST 6:35 PM PST
Moon 9:45 PM PST (11/4) 11:33 AM PST (11/4)
Length of Visible Light 11h 14m
Length of Day
10h 16m
Waning Gibbous, 71% of the Moon is Illuminated
Nov 4
Waning Gibbous
Nov 6
Last Quarter
Nov 13
New
Nov 20
First Quarter
Nov 28
Full

Hourly Weather History & Observations

Time (PST) Temp. Windchill Dew Point Humidity Pressure Visibility Wind Dir Wind Speed Gust Speed Precip Events Conditions
1:10 AM 42.8 °F 40.1 °F 41.0 °F 93% 30.33 in 10.0 mi West 4.6 mph - N/A   Mostly Cloudy
1:30 AM 42.8 °F 41.1 °F 41.0 °F 93% 30.33 in 10.0 mi West 3.5 mph - N/A   Scattered Clouds
1:50 AM 42.8 °F 41.1 °F 41.0 °F 93% 30.33 in 10.0 mi West 3.5 mph - N/A   Partly Cloudy
2:10 AM 42.8 °F 40.1 °F 41.0 °F 93% 30.33 in 10.0 mi West 4.6 mph - N/A   Mostly Cloudy
2:30 AM 41.0 °F - 41.0 °F 100% 30.34 in 10.0 mi Calm Calm - N/A   Overcast
2:50 AM 42.8 °F 41.1 °F 41.0 °F 93% 30.34 in 10.0 mi WNW 3.5 mph - N/A   Overcast
3:10 AM 42.8 °F 41.1 °F 41.0 °F 93% 30.34 in 10.0 mi WNW 3.5 mph - N/A   Overcast
3:30 AM 42.8 °F - 41.0 °F 93% 30.34 in 10.0 mi Calm Calm - N/A   Overcast
3:50 AM 44.6 °F - 41.0 °F 87% 30.34 in 10.0 mi Calm Calm - N/A   Overcast
4:10 AM 44.6 °F 43.1 °F 41.0 °F 87% 30.35 in 10.0 mi West 3.5 mph - N/A   Overcast
4:30 AM 42.8 °F 41.1 °F 41.0 °F 93% 30.36 in 10.0 mi West 3.5 mph - N/A   Overcast
4:50 AM 42.8 °F - 41.0 °F 93% 30.36 in 6.0 mi Calm Calm - N/A   Overcast
5:10 AM 42.8 °F 41.1 °F 41.0 °F 93% 30.36 in 7.0 mi WNW 3.5 mph - N/A   Overcast
5:30 AM 44.6 °F - 41.0 °F 87% 30.36 in 10.0 mi Calm Calm - N/A   Overcast
5:50 AM 44.6 °F - 42.8 °F 93% 30.36 in 5.0 mi Calm Calm - N/A   Overcast
6:10 AM 44.6 °F 42.2 °F 42.8 °F 93% 30.36 in 1.5 mi WNW 4.6 mph - N/A   Overcast
6:30 AM 44.6 °F 43.1 °F 42.8 °F 93% 30.37 in 8.0 mi West 3.5 mph - N/A   Overcast
6:50 AM 42.8 °F 40.1 °F 41.0 °F 93% 30.38 in 9.0 mi West 4.6 mph - N/A   Overcast
7:10 AM 44.6 °F 43.1 °F 41.0 °F 87% 30.39 in 10.0 mi West 3.5 mph - N/A   Overcast
7:30 AM 44.6 °F 43.1 °F 41.0 °F 87% 30.40 in 10.0 mi West 3.5 mph - N/A   Overcast
7:50 AM 44.6 °F 43.1 °F 42.8 °F 93% 30.40 in 10.0 mi WNW 3.5 mph - N/A   Overcast
8:10 AM 44.6 °F - 42.8 °F 93% 30.41 in 10.0 mi Calm Calm - N/A   Overcast
8:30 AM 44.6 °F - 44.6 °F 100% 30.41 in 8.0 mi Calm Calm - N/A   Overcast
8:50 AM 46.4 °F - 44.6 °F 93% 30.41 in 10.0 mi Calm Calm - N/A   Overcast
9:10 AM 46.4 °F - 44.6 °F 93% 30.41 in 8.0 mi Calm Calm - N/A   Overcast
9:30 AM 48.2 °F - 46.4 °F 93% 30.41 in 10.0 mi Calm Calm - N/A   Overcast
9:50 AM 48.2 °F - 46.4 °F 93% 30.41 in 10.0 mi Calm Calm - N/A   Overcast
10:10 AM 50.0 °F - 46.4 °F 87% 30.41 in 10.0 mi Calm Calm - N/A   Mostly Cloudy
10:30 AM 51.8 °F - 46.4 °F 82% 30.41 in 10.0 mi ENE 3.5 mph - N/A   Partly Cloudy
10:50 AM 53.6 °F - 48.2 °F 82% 30.40 in 10.0 mi Calm Calm - N/A   Clear
11:10 AM 55.4 °F - 48.2 °F 77% 30.40 in 10.0 mi Calm Calm - N/A   Clear
11:30 AM 57.2 °F - 48.2 °F 72% 30.38 in 10.0 mi ENE 3.5 mph - N/A   Clear
11:50 AM 57.2 °F - 46.4 °F 67% 30.38 in 10.0 mi Calm Calm - N/A   Clear
12:10 PM 59.0 °F - 48.2 °F 67% 30.36 in 10.0 mi Calm Calm - N/A   Clear
12:30 PM 59.0 °F - 48.2 °F 67% 30.36 in 10.0 mi Calm Calm - N/A   Clear
12:50 PM 60.8 °F - 48.2 °F 63% 30.35 in 10.0 mi Calm Calm - N/A   Clear
1:10 PM 62.6 °F - 48.2 °F 59% 30.35 in 10.0 mi Calm Calm - N/A   Clear
1:30 PM 62.6 °F - 48.2 °F 59% 30.35 in 10.0 mi SSE 3.5 mph - N/A   Clear
1:50 PM 64.4 °F - 50.0 °F 59% 30.34 in 10.0 mi Calm Calm - N/A   Clear
2:10 PM 66.2 °F - 51.8 °F 60% 30.34 in 10.0 mi Calm Calm - N/A   Clear
2:30 PM 64.4 °F - 50.0 °F 59% 30.34 in 10.0 mi Calm Calm - N/A   Clear
2:50 PM 66.2 °F - 51.8 °F 60% 30.34 in 10.0 mi Calm Calm - N/A   Clear
3:10 PM 66.2 °F - 53.6 °F 64% 30.33 in 10.0 mi Calm Calm - N/A   Clear
3:30 PM 66.2 °F - 53.6 °F 64% 30.34 in 10.0 mi Calm Calm - N/A   Clear
3:50 PM 64.4 °F - 55.4 °F 73% 30.33 in 10.0 mi Calm Calm - N/A   Clear
4:10 PM 62.6 °F - 55.4 °F 77% 30.34 in 10.0 mi Calm Calm - N/A   Clear
4:50 PM 57.2 °F - 53.6 °F 88% 30.35 in 5.0 mi Calm Calm - N/A   Clear
5:10 PM 57.2 °F - 53.6 °F 88% 30.36 in 10.0 mi West 4.6 mph - N/A   Clear
5:30 PM 55.4 °F - 53.6 °F 94% 30.36 in 8.0 mi NNW 3.5 mph - N/A   Clear
5:50 PM 55.4 °F - 53.6 °F 94% 30.37 in 10.0 mi Calm Calm - N/A   Clear
6:10 PM 53.6 °F - 51.8 °F 94% 30.37 in 9.0 mi Calm Calm - N/A   Clear
6:30 PM 51.8 °F - 50.0 °F 94% 30.37 in 10.0 mi Calm Calm - N/A   Clear
6:50 PM 51.8 °F - 50.0 °F 94% 30.38 in 7.0 mi Calm Calm - N/A   Clear
7:10 PM 50.0 °F - 50.0 °F 100% 30.38 in 10.0 mi WNW 3.5 mph - N/A   Clear
7:30 PM 50.0 °F - 48.2 °F 94% 30.39 in 10.0 mi West 3.5 mph - N/A   Clear
7:50 PM 50.0 °F - 48.2 °F 94% 30.39 in 10.0 mi WSW 3.5 mph - N/A   Clear
8:10 PM 48.2 °F - 48.2 °F 100% 30.39 in 7.0 mi West 4.6 mph - N/A   Clear
8:30 PM 48.2 °F - 48.2 °F 100% 30.39 in 5.0 mi West 3.5 mph - N/A   Clear
8:50 PM 48.2 °F - 46.4 °F 93% 30.39 in 8.0 mi West 4.6 mph - N/A   Clear
9:10 PM 48.2 °F - 46.4 °F 93% 30.40 in 8.0 mi West 3.5 mph - N/A   Partly Cloudy
9:30 PM 48.2 °F - 46.4 °F 93% 30.41 in 5.0 mi West 3.5 mph - N/A   Mostly Cloudy
9:50 PM 48.2 °F - 46.4 °F 93% 30.41 in 10.0 mi West 5.8 mph - N/A   Overcast
10:10 PM 50.0 °F - 46.4 °F 87% 30.41 in 10.0 mi West 3.5 mph - N/A   Mostly Cloudy
10:30 PM 46.4 °F 45.2 °F 44.6 °F 93% 30.41 in 10.0 mi West 3.5 mph - N/A   Scattered Clouds
10:50 PM 46.4 °F 44.3 °F 44.6 °F 93% 30.41 in 9.0 mi West 4.6 mph - N/A   Mostly Cloudy